Madigan Hospital, WA

9:22 PM PDT on September 26, 2016 (GMT -0700)
Gray Army Air Field

Weather History for KGRF - February, 2013

Change the Weather History Date:

Tuesday, February 19, 2013

  Actual Average Record
Temperature  
Mean Temperature 40 °F -  
Max Temperature 49 °F 49 °F 55 °F (2001)
Min Temperature 30 °F 31 °F 14 °F (2006)
Degree Days  
Heating Degree Days 24    
Moisture  
Dew Point 37 °F    
Average Humidity 87    
Maximum Humidity 100    
Minimum Humidity 58    
Precipitation  
Precipitation 0.01 in - - ()
Sea Level Pressure  
Sea Level Pressure 29.81 in    
Wind  
Wind Speed 1 mph (SSE)    
Max Wind Speed 6 mph    
Max Gust Speed -    
Visibility 10 miles    
Events      
Averages and records for this station are not official NWS values.
T = Trace of Precipitation, MM = Missing Value Source: NWS Daily Summary

Daily Weather History Graph

Daily Weather History Graph

Search for Another Location

Airport or City:

Trip Planner

Search our weather history database for the weather conditions in past years. The results will help you decide how hot, cold, wet, or windy it might be!

Date:

Astronomy

Feb. 19, 2013 Rise Set
Actual Time 7:07 AM PST 5:41 PM PST
Civil Twilight 6:36 AM PST 6:12 PM PST
Nautical Twilight 6:01 AM PST 6:47 PM PST
Astronomical Twilight 5:25 AM PST 7:23 PM PST
Moon 12:04 PM PST (2/19) 2:56 AM PST (2/19)
Length of Visible Light 11h 35m
Length of Day
10h 33m
Waxing Gibbous, 68% of the Moon is Illuminated
Feb 19
Waxing Gibbous
Feb 25
Full
Mar 4
Last Quarter
Mar 11
New
Mar 19
First Quarter

Hourly Weather History & Observations

Time (PST) Temp. Windchill Dew Point Humidity Pressure Visibility Wind Dir Wind Speed Gust Speed Precip Events Conditions
12:58 AM 37.9 °F - 36.9 °F 96% 29.75 in 10.0 mi Calm Calm - N/A   Mostly Cloudy
1:58 AM 38.7 °F - 38.1 °F 98% 29.75 in 10.0 mi South 1.2 mph - N/A   Mostly Cloudy
2:02 AM 39.2 °F - 37.4 °F 93% 29.73 in 10.0 mi South 2.3 mph - N/A   Mostly Cloudy
2:07 AM 39.2 °F 35.9 °F 37.4 °F 93% 29.72 in 10.0 mi South 4.6 mph - N/A   Light Drizzle
2:12 AM 39.2 °F - 37.4 °F 93% 29.73 in 10.0 mi Calm Calm - N/A   Light Drizzle
2:21 AM 39.2 °F - 37.4 °F 93% 29.73 in 10.0 mi Calm Calm - N/A   Mostly Cloudy
2:31 AM 39.2 °F - 37.4 °F 93% 29.73 in 10.0 mi Calm Calm - N/A   Mostly Cloudy
2:36 AM 39.2 °F - 37.4 °F 93% 29.73 in 10.0 mi Calm Calm - N/A   Overcast
2:46 AM 39.2 °F - 37.4 °F 93% 29.73 in 10.0 mi Calm Calm - N/A   Mostly Cloudy
2:55 AM 39.2 °F - 37.4 °F 93% 29.73 in 10.0 mi Calm Calm - N/A   Mostly Cloudy
2:57 AM 39.2 °F - 37.4 °F 93% 29.73 in 10.0 mi South 2.3 mph - N/A   Mostly Cloudy
2:58 AM 39.2 °F - 37.4 °F 93% 29.75 in 10.0 mi South 1.2 mph - 0.00 in   Mostly Cloudy
3:01 AM 39.2 °F - 37.4 °F 93% 29.73 in 10.0 mi Calm Calm - N/A   Mostly Cloudy
3:05 AM 39.2 °F - 37.4 °F 93% 29.73 in 10.0 mi SE 1.2 mph - N/A   Scattered Clouds
3:58 AM 38.8 °F - 38.1 °F 97% 29.74 in 10.0 mi Calm Calm - 0.01 in   Overcast
4:58 AM 39.2 °F 37.0 °F 36.5 °F 90% 29.74 in 10.0 mi South 3.5 mph - N/A   Overcast
5:58 AM 37.9 °F - 37.2 °F 97% 29.76 in 10.0 mi South 2.3 mph - N/A   Overcast
6:58 AM 37.6 °F - 37.2 °F 99% 29.78 in 10.0 mi Calm Calm - N/A   Overcast
7:58 AM 37.9 °F - 37.6 °F 99% 29.79 in 10.0 mi South 2.3 mph - N/A   Overcast
8:58 AM 38.1 °F - 37.9 °F 99% 29.81 in 10.0 mi South 1.2 mph - N/A   Overcast
9:58 AM 40.1 °F - 39.2 °F 97% 29.82 in 10.0 mi South 1.2 mph - N/A   Overcast
10:48 AM 41.0 °F - 39.2 °F 93% 29.81 in 10.0 mi Calm Calm - N/A   Overcast
10:58 AM 42.1 °F - 39.0 °F 89% 29.83 in 10.0 mi Calm Calm - N/A   Overcast
11:55 AM 44.6 °F - 39.2 °F 81% 29.82 in 10.0 mi SSE 1.2 mph - N/A   Overcast
12:10 PM 44.6 °F - 39.2 °F 81% 29.82 in 10.0 mi East 1.2 mph - N/A   Overcast
12:19 PM 44.6 °F - 37.4 °F 76% 29.82 in 10.0 mi SSE 1.2 mph - N/A   Overcast
12:50 PM 46.4 °F 43.5 °F 35.6 °F 66% 29.82 in 10.0 mi South 5.8 mph - N/A   Overcast
12:55 PM 46.4 °F 43.5 °F 35.6 °F 66% 29.82 in 10.0 mi South 5.8 mph - N/A   Overcast
1:18 PM 46.4 °F - 37.4 °F 71% 29.82 in 10.0 mi South 2.3 mph - N/A   Mostly Cloudy
1:25 PM 46.4 °F 45.2 °F 35.6 °F 66% 29.83 in 10.0 mi SSE 3.5 mph - N/A   Mostly Cloudy
1:55 PM 48.2 °F - 35.6 °F 62% 29.83 in 10.0 mi SSW 1.2 mph - N/A   Mostly Cloudy
2:58 PM 49.3 °F - 35.2 °F 58% 29.86 in 10.0 mi SSW 3.5 mph - N/A   Partly Cloudy
4:58 PM 47.5 °F - 34.9 °F 62% 29.88 in 10.0 mi SSW 5.8 mph - N/A   Overcast
5:58 PM 43.5 °F 41.9 °F 35.6 °F 74% 29.90 in 10.0 mi SSW 3.5 mph - N/A   Clear
6:58 PM 41.9 °F - 36.0 °F 79% 29.94 in 10.0 mi Calm Calm - N/A   Clear
7:58 PM 40.1 °F 38.0 °F 35.2 °F 83% 29.94 in 10.0 mi North 3.5 mph - N/A   Clear
8:58 PM 40.1 °F - 35.2 °F 83% 29.97 in 10.0 mi Calm Calm - N/A   Partly Cloudy
9:55 PM 32.0 °F 28.7 °F 32.0 °F 100% 29.97 in 10.0 mi SE 3.5 mph - N/A   Clear
10:58 PM 32.5 °F - 32.0 °F 98% 30.01 in 10.0 mi Variable 2.3 mph - N/A   Clear
11:58 PM 30.2 °F - 29.7 °F 98% 30.01 in 10.0 mi East 2.3 mph - N/A   Clear